Location: Central Falls
(41.8900°N, 71.3929°W)
Time: 21:59:35
(UTC+00:00)

Transit 4A - All Passes

Search period start: 06 December 2023 00:00
Search period end: 16 December 2023 00:00
Orbit: 864 x 979 km, 66.8° (Epoch: 06 December)

Date Brightness Start Highest point End Pass type
(mag) Time Alt. Az. Time Alt. Az. Time Alt. Az.
06 Dec - 00:58:02 10° SW 01:04:24 67° WNW 01:10:43 10° NNE visible
06 Dec - 02:48:08 10° WNW 02:51:58 16° NW 02:55:48 10° N night (unlit)
06 Dec - 08:15:03 10° NNW 08:20:16 28° NE 08:25:21 10° ESE visible
06 Dec - 10:01:02 10° NW 10:06:59 56° WSW 10:12:43 10° S visible
06 Dec - 23:21:53 10° S 23:27:27 33° ESE 23:33:00 10° NE visible
07 Dec - 01:07:29 10° SW 01:13:37 47° NW 01:19:44 10° NNE visible
07 Dec - 02:59:03 10° NW 03:01:38 12° NNW 03:04:12 10° N night (unlit)
07 Dec - 06:40:36 10° NNE 06:41:21 10° NNE 06:42:06 10° NNE visible
07 Dec - 08:23:57 10° NNW 08:29:38 38° NE 08:35:08 10° ESE visible
07 Dec - 10:10:25 10° NW 10:15:56 38° WSW 10:21:17 10° S visible
07 Dec - 23:30:19 10° S 23:36:24 48° ESE 23:42:27 10° NE visible
08 Dec - 01:17:10 10° WSW 01:22:56 34° NW 01:28:39 10° NNE visible
08 Dec - 06:48:13 10° N 06:51:03 13° NNE 06:53:52 10° ENE visible
08 Dec - 08:32:55 10° NNW 08:38:54 54° NE 08:44:41 10° SE visible
08 Dec - 10:20:01 10° NW 10:24:49 25° WSW 10:29:29 10° SSW visible
08 Dec - 21:59:34 10° ESE 22:00:11 10° E 22:00:48 10° E visible
08 Dec - 23:39:04 10° SSW 23:45:25 70° ESE 23:51:44 10° NE visible
09 Dec - 01:27:07 10° W 01:32:20 26° NW 01:37:30 10° N visible
09 Dec - 06:56:42 10° N 07:00:40 17° NE 07:04:33 10° ENE visible
09 Dec - 08:41:58 10° NNW 08:48:05 78° ENE 08:53:59 10° SE visible
09 Dec - 10:30:03 10° WNW 10:33:37 16° WSW 10:37:08 10° SW visible
09 Dec - 22:05:07 10° SE 22:08:56 17° ESE 22:12:44 10° ENE visible
09 Dec - 23:48:06 10° SSW 23:54:31 84° WNW 00:00:53 10° NNE visible
10 Dec - 01:37:20 10° W 01:41:49 19° NW 01:46:15 10° N visible
10 Dec - 07:05:25 10° N 07:10:11 23° NE 07:14:50 10° E visible
10 Dec - 08:51:06 10° NNW 08:57:10 74° WSW 09:03:01 10° SSE visible
10 Dec - 22:12:43 10° SSE 22:17:45 25° ESE 22:22:46 10° NE visible
10 Dec - 23:57:22 10° SW 00:03:41 60° NW 00:09:57 10° NNE visible
11 Dec - 01:47:55 10° WNW 01:51:24 15° NW 01:54:51 10° N visible
11 Dec - 07:14:14 10° NNW 07:19:36 31° NE 07:24:49 10° ESE visible
11 Dec - 09:00:22 10° NW 09:06:11 49° WSW 09:11:49 10° S visible
11 Dec - 22:20:54 10° S 22:26:39 37° ESE 22:32:23 10° NE visible
12 Dec - 00:06:54 10° WSW 00:12:55 43° NW 00:18:55 10° NNE visible
12 Dec - 01:59:04 10° NW 02:01:04 11° NNW 02:03:04 10° N visible
12 Dec - 05:39:09 10° NNE 05:40:48 11° NNE 05:42:27 10° NE night (unlit)
12 Dec - 07:23:09 10° NNW 07:28:56 42° NE 07:34:32 10° ESE visible
12 Dec - 09:09:48 10° NW 09:15:07 33° WSW 09:20:16 10° S visible
12 Dec - 22:29:26 10° S 22:35:37 54° ESE 22:41:46 10° NE visible
13 Dec - 00:16:40 10° WSW 00:22:16 31° NW 00:27:50 10° NNE visible
13 Dec - 05:47:15 10° N 05:50:28 14° NNE 05:53:38 10° ENE night (unlit)
13 Dec - 07:32:08 10° NNW 07:38:11 61° ENE 07:43:59 10° SE night (unlit)
13 Dec - 09:19:31 10° WNW 09:23:57 22° WSW 09:28:19 10° SSW visible
13 Dec - 20:57:02 10° ESE 20:59:19 12° E 21:01:35 10° E daylight
13 Dec - 22:38:17 10° SSW 22:44:40 78° ESE 22:51:00 10° NNE visible
14 Dec - 00:26:42 10° W 00:31:41 23° NW 00:36:38 10° N visible
14 Dec - 05:55:50 10° N 06:00:03 19° NE 06:04:10 10° E night (unlit)
14 Dec - 07:41:13 10° NNW 07:47:19 87° ENE 07:53:13 10° SSE night (unlit)
14 Dec - 09:29:48 10° WNW 09:32:45 14° WSW 09:35:39 10° SW night (unlit)
14 Dec - 21:03:49 10° SSE 21:08:05 19° ESE 21:12:21 10° ENE daylight
14 Dec - 22:47:23 10° SW 22:53:47 75° WNW 23:00:07 10° NNE visible
15 Dec - 00:37:01 10° W 00:41:12 18° NW 00:45:21 10° N visible
15 Dec - 06:04:34 10° N 06:09:31 25° NE 06:14:21 10° E night (unlit)
15 Dec - 07:50:24 10° NW 07:56:23 65° WSW 08:02:11 10° SSE night (unlit)
15 Dec - 21:11:38 10° SSE 21:16:56 28° ESE 21:22:13 10° NE daylight
15 Dec - 22:56:44 10° SW 23:02:58 53° NW 23:09:09 10° NNE visible
